Location: �perlecques
(50.8057°N, 2.1521°E)
Time: 11:22:23
(UTC+00:00)

STARS - Visible Passes

Search period start: 02 April 2023 00:00
Search period end: 12 April 2023 00:00
Orbit: 616 x 633 km, 98.1° (Epoch: 01 April)

Date Brightness Start Highest point End Pass type
(mag) Time Alt. Az. Time Alt. Az. Time Alt. Az.
02 Apr ? 22:34:25 10° NNE 22:35:12 14° NE 22:35:12 14° NE visible
03 Apr ? 00:10:38 10° N 00:12:28 22° NNW 00:12:28 22° NNW visible
03 Apr ? 22:52:52 10° NNE 22:54:10 19° NNE 22:54:10 19° NNE visible
04 Apr ? 00:29:34 10° N 00:31:26 19° NNW 00:31:26 19° NNW visible
04 Apr ? 23:11:25 10° NNE 23:13:07 23° NNE 23:13:07 23° NNE visible
05 Apr ? 00:48:39 10° NNW 00:50:23 16° NW 00:50:23 16° NW visible
05 Apr ? 23:30:03 10° NNE 23:32:04 27° N 23:32:04 27° N visible
06 Apr ? 01:08:05 10° NNW 01:09:20 12° NW 01:09:20 12° NW visible
06 Apr ? 22:13:13 10° NE 22:13:44 12° NE 22:13:44 12° NE visible
06 Apr ? 23:48:45 10° N 23:51:00 28° N 23:51:00 28° N visible
07 Apr ? 22:31:25 10° NNE 22:32:39 17° NE 22:32:39 17° NE visible
08 Apr ? 00:07:31 10° N 00:09:55 26° NNW 00:09:55 26° NNW visible
08 Apr ? 22:49:47 10° NNE 22:51:35 23° NE 22:51:35 23° NE visible
09 Apr ? 00:26:23 10° N 00:28:50 22° NW 00:28:50 22° NW visible
09 Apr ? 23:08:16 10° NNE 23:10:29 29° NNE 23:10:29 29° NNE visible
10 Apr ? 00:45:23 10° NNW 00:47:44 18° NW 00:47:44 18° NW visible
10 Apr ? 23:26:50 10° NNE 23:29:22 34° N 23:29:22 34° N visible
11 Apr ? 01:04:39 10° NNW 01:06:38 13° NW 01:06:38 13° NW visible
11 Apr ? 22:10:05 10° NE 22:11:00 14° NE 22:11:00 14° NE visible
11 Apr ? 23:45:29 10° N 23:48:16 36° NNW 23:48:16 36° NNW visible
